Regional Weather Roundup
Issued by NWS

Home | Current Version | Previous Version | Graphics & Text | Print | Product List | Glossary On
Versions: 1 2 3 4 5 6 7 8 9 10 11 12 13 14 15 16 17 18 19 20 21 22 23 24 25 26 27
000
ASUS45 KBOU 220707
RWRCO

WEATHER ROUNDUP FOR COLORADO
NATIONAL WEATHER SERVICE DENVER/BOULDER CO
100 AM MDT FRI JUL 22 2016

NOTE: "FAIR" INDICATES FEW OR NO CLOUDS BELOW 12000 FEET WITH NO
SIGNIFICANT WEATHER AND/OR OBSTRUCTIONS TO VISIBILITY.

COZ001>005-013-030-031-220800-
...NORTHWEST COLORADO...

CITY           SKY/WX    TMP DP  RH WIND       PRES   REMARKS
CRAIG          FAIR      57  47  69 E3        30.37R
HAYDEN         FAIR      57  46  67 E6        30.39R
MEEKER         FAIR      56  52  86 NE5       30.37S
MOUNT WERNER   NOT AVBL
STEAMBOAT SPGS FAIR      52  47  83 NW5       30.42R
WALDEN         FAIR      50  45  81 SE6       30.52F
$$

COZ006>008-011-220800-
...WEST CENTRAL VALLEYS...

CITY           SKY/WX    TMP DP  RH WIND       PRES   REMARKS
GRAND JUNCTION FAIR      75  55  49 SE16      30.24R
MONTROSE       FAIR      69  55  60 SE9       30.34F
EAGLE          FAIR      61  54  77 CALM      30.45R
RIFLE          FAIR      65  52  62 VRB5      30.31S
DELTA          FAIR      71  58  64 N5        30.30S
NUCLA          FAIR      64  55  72 E9        30.40S
$$

COZ017>023-064>068-220800-
...SOUTHWEST COLORADO...

CITY           SKY/WX    TMP DP  RH WIND       PRES   REMARKS
DURANGO        MOCLDY    68  52  56 E9        30.42F
CORTEZ         FAIR      69  56  62 E8        30.35F
PAGOSA SPRINGS FAIR      62  50  66 CALM      30.51F
TELLURIDE      MOCLDY    56  53  92 SE6       30.62S
WOLF CREEK PAS CLOUDY    46  43  87 SW12      30.84S
$$

COZ009-010-012-014-032>034-037-058>063-220800-
...CENTRAL COLORADO...

CITY           SKY/WX    TMP DP  RH WIND       PRES   REMARKS
ASPEN          FAIR      56  53  90 CALM      30.47F
BUENA VISTA    CLOUDY    58  54  85 CALM      30.54S
COPPER MTN     FAIR      55  37  50 S15       30.81R
BERTHOUD PASS  MOCLDY    46  32  57 SE5       30.84S
COTTONWOOD PAS CLOUDY    61  43  51 SW6       30.67F
GUNNISON       FAIR      61  54  77 S3        30.53R
KREMMLING      FAIR      54  50  87 CALM      30.49S
LEADVILLE      FAIR      46  44  93 CALM      30.66S
MONARCH PASS   FAIR      50  41  71 MISG      30.92S
SALIDA         FAIR      60  55  81 W8        30.58F
SUNLIGHT       FAIR      54  46  76 CALM      30.72F
WILKERSON PASS FAIR      48  41  76 S5        30.79S
$$

COZ069>075-220800-
...SAN LUIS VALLEY/SANGRE DE CRISTO MOUNTAINS...

CITY           SKY/WX    TMP DP  RH WIND       PRES   REMARKS
ALAMOSA        MOCLDY    66  50  56 N13       30.49R
LA VETA PASS   CLOUDY    54  45  71 SW5       30.69S
SAGUACHE       MOCLDY    61  50  67 W6        30.53R
$$

COZ035-036-038>040-220800-
...NORTHERN COLORADO FRONT RANGE...

CITY           SKY/WX    TMP DP  RH WIND       PRES   REMARKS
DENVER INTL AP MOCLDY    77  49  37 SW12      30.25S
DMNS CITY PARK   N/A     71  53  53 SE6       30.24F
AURORA         MOCLDY    74  50  42 S9        30.27F
FRONT RANGE AP NOT AVBL
ERIE MUNI ARPT FAIR      71  50  47 CALM      30.22F
BOULDER MUN AP FAIR      79  43  27 CALM      30.22S
CENTENNIAL     MOCLDY    73  47  39 S5        30.29S
BROOMFIELD     FAIR      75  46  35 SE3       30.26F
LONGMONT       FAIR      71  53  53 CALM      30.23F
$$

COZ041-046-047-076>085-087-088-220800-
...PIKES PEAK/PALMER DIVIDE AND SOUTHERN FOOTHILLS...

CITY           SKY/WX    TMP DP  RH WIND       PRES   REMARKS
COLO. SPRINGS  MOCLDY    69  52  54 W8        30.36F
A. F. ACADEMY  FAIR      64  49  58 N7        30.37F
SCHRIEVER AFB  NOT AVBL
ELLICOTT       FAIR     N/A N/A N/A NW8       30.33S
FALCON         NOT AVBL
FORT CARSON    MOCLDY    70  52  52 CALM      30.32S
LIMON          FAIR      71  49  45 W8        30.26F
MONUMENT HILL  FAIR      63  48  59 SW8       30.41F
TRINIDAD       NOT AVBL
$$

COZ042>045-048>051-090-091-220800-
...NORTHEAST COLORADO...

CITY           SKY/WX    TMP DP  RH WIND       PRES   REMARKS
GREELEY ARPT   FAIR      73  52  46 CALM      30.20S
AKRON          FAIR      73  53  49 SW13      30.20R
BURLINGTON     FAIR      81  57  43 VRB7      30.14F
WRAY           NOT AVBL
STERLING       FAIR      73  64  73 S6        30.12S
HOLYOKE        FAIR      73  68  83 CALM      30.11S
FORT MORGAN    FAIR      70  52  53 W9        30.17F
$$

COZ086-089-092>099-220800-
...SOUTHEAST COLORADO...

CITY           SKY/WX    TMP DP  RH WIND       PRES   REMARKS
PUEBLO         FAIR      82  50  32 NW8       30.22R
LA JUNTA       FAIR      80  51  36 SW12      30.16R
LAMAR          FAIR      76  56  49 E8        30.08F
SPRINGFIELD      N/A     81  52  36 S14       30.16R
$$




USA.gov is the U.S. government's official web portal to all federal, state and local government web resources and services.